Theta_e
316 315 315 316 316 317 318 319 319 319 319 318 318 317 316 316 317 318 321 330 333 334 335 332 333 335 334 339 346 350 350 350 347 347 347 344 344 341 343 343 343 344 347 347 343
317 317 316 315 316 316 317 317 318 319 319 319 319 317 317 317 317 318 320 325 332 336 335 333 334 335 335 344 347 348 349 348 345 345 346 345 344 343 344 342 346 348 348 343 340
317 317 317 317 316 315 316 316 317 318 319 320 319 318 317 316 317 318 319 323 332 335 335 334 336 337 335 335 346 346 345 344 344 344 344 345 344 346 344 344 344 348 349 342 338
315 316 317 317 317 316 315 315 316 317 319 320 320 319 317 316 318 321 322 320 323 328 335 333 337 338 337 338 336 339 338 341 345 345 345 346 345 345 345 346 342 346 338 338 340
313 314 316 316 316 316 316 315 315 316 318 319 320 319 317 316 317 321 323 321 320 323 334 334 336 336 338 335 336 337 337 342 346 343 345 346 346 347 345 344 342 346 342 342 344
312 312 314 315 316 316 316 315 315 316 316 317 319 320 318 317 317 320 323 322 320 324 333 332 336 335 335 335 336 335 340 345 345 344 345 347 347 347 343 345 346 345 346 346 346
313 311 312 314 315 316 316 315 315 315 315 316 319 319 318 317 317 322 321 320 320 329 330 330 330 333 332 335 333 337 344 343 345 344 345 345 348 349 344 346 347 346 346 346 346
313 312 311 313 314 315 315 315 315 315 315 317 320 318 318 317 318 322 321 324 324 325 326 326 329 327 331 332 335 341 342 344 343 344 341 343 350 344 342 346 347 346 346 346 344
313 312 311 312 314 315 314 315 318 319 319 321 319 318 318 320 318 320 321 321 322 322 322 323 324 328 332 336 338 339 344 342 341 343 343 343 346 345 341 344 347 347 346 346 345
313 312 311 312 314 315 316 323 327 321 320 319 319 320 319 323 324 322 321 321 322 321 321 323 329 334 333 338 341 339 339 337 337 337 343 343 344 345 341 341 343 344 346 346 346
314 312 311 312 314 315 324 327 325 325 326 325 320 317 319 324 325 323 322 322 322 320 324 325 332 337 337 336 336 335 336 336 335 335 340 343 343 341 344 341 341 342 342 342 344
316 313 311 311 315 316 325 323 323 323 324 324 325 326 325 325 325 324 322 322 321 321 322 327 332 334 333 333 334 334 336 336 336 337 340 341 342 340 344 344 343 342 341 342 342
318 314 311 311 315 320 324 323 324 323 324 323 324 324 325 326 326 323 322 320 321 320 322 328 329 329 333 333 335 334 335 334 335 335 339 341 342 342 342 343 344 344 343 343 343
320 316 311 311 314 322 324 323 324 324 329 329 325 324 324 327 327 326 320 320 319 321 321 324 323 329 331 334 333 336 331 332 333 333 332 338 337 342 340 344 344 344 344 343 344
320 316 311 311 314 321 324 323 324 324 330 328 325 325 325 325 322 325 320 321 321 320 322 325 323 327 331 333 331 335 330 330 330 332 334 338 338 336 339 339 340 342 343 344 344
321 313 312 314 314 320 324 323 324 329 333 330 324 325 326 324 323 321 322 322 319 321 320 323 319 324 328 326 330 325 325 324 326 332 333 334 338 333 336 337 338 342 343 343 344
320 312 318 315 315 320 324 324 326 333 328 325 324 325 325 326 326 324 324 323 322 321 322 321 322 321 321 323 322 325 326 327 329 330 330 327 336 334 334 331 334 339 339 344 344
315 322 320 317 316 320 322 325 334 332 331 324 323 323 325 324 323 321 322 325 318 320 321 324 324 322 322 325 325 324 325 328 329 327 326 324 330 329 331 336 339 340 340 343 346
314 327 325 322 315 319 323 324 332 331 329 325 323 326 325 323 323 321 323 325 324 321 324 324 324 320 320 321 323 321 324 322 323 320 325 325 328 329 337 342 341 341 341 344 346
318 328 325 318 319 323 326 324 327 326 327 324 324 324 325 324 324 322 322 322 323 320 320 322 324 321 319 320 319 323 320 324 324 326 326 327 329 331 339 339 340 342 341 342 342
321 328 319 320 322 324 325 322 323 324 325 326 327 326 324 327 324 323 324 322 320 318 319 320 322 323 322 323 324 322 323 320 323 324 326 326 328 329 334 336 336 338 340 341 340
322 330 319 320 322 317 323 323 322 326 326 327 324 326 329 329 328 325 323 322 318 319 321 320 321 325 324 321 321 321 324 325 326 326 323 325 327 333 336 335 335 336 336 336 336
321 326 319 322 324 323 321 322 323 327 329 328 328 327 328 331 332 324 321 323 317 321 323 321 323 327 326 328 325 325 320 319 321 324 329 326 327 327 340 339 335 337 339 337 336
325 330 324 321 318 321 324 326 327 326 327 327 327 328 330 336 335 336 332 329 318 322 320 323 322 328 329 332 330 333 322 320 324 327 327 327 331 336 345 343 345 349 346 344 344
322 324 321 327 324 324 324 326 328 330 327 326 329 329 331 336 338 338 334 331 328 323 322 326 331 329 329 331 331 333 328 321 325 328 330 336 336 345 347 349 349 351 350 352 355
320 323 320 321 322 324 321 327 326 328 328 331 329 332 334 338 337 338 336 335 334 328 327 324 330 333 334 333 338 341 339 328 334 330 343 341 343 346 347 350 347 345 348 350 350
312 318 320 318 323 325 326 326 326 324 329 329 333 334 335 333 331 332 332 331 330 332 332 333 333 336 336 332 333 337 338 339 344 343 342 340 344 347 350 349 344 345 342 341 340
Wind_Speed
12 12 12 12 12 12 12 11 11 11 11 11 11 11 11 10 9 11 12 10 10 8 3 2 5 7 7 2 2 1 0 1 1 2 1 13 6 6 5 17 4 2 9 18 26
12 12 12 12 12 12 12 11 11 11 11 11 11 11 11 10 10 12 12 10 10 11 5 1 4 7 2 2 2 1 1 3 1 4 3 13 9 11 6 14 5 11 15 25 26
13 12 12 12 12 12 11 11 11 11 10 10 10 10 10 9 7 5 12 13 12 10 7 1 3 5 2 1 3 2 2 2 3 6 8 12 9 7 14 7 9 19 26 27 26
14 13 13 13 12 12 12 11 11 11 10 10 10 10 10 6 3 7 8 18 17 13 9 2 1 2 3 4 2 3 5 5 3 8 9 9 7 6 9 1 12 22 29 30 28
15 14 14 13 13 12 11 12 11 11 10 10 9 9 8 5 6 5 5 15 21 16 11 4 1 2 2 4 4 3 5 1 6 12 11 11 6 1 8 4 16 23 29 28 25
16 15 15 14 13 12 11 11 11 11 10 9 8 8 7 4 4 4 3 14 21 19 13 8 3 0 1 2 2 6 2 6 6 11 10 9 4 5 6 14 21 26 27 24 23
17 16 15 14 14 12 11 11 11 11 10 8 7 7 10 12 4 7 6 12 19 18 10 9 6 2 2 1 6 2 5 7 5 4 3 7 3 7 13 18 22 25 25 23 23
18 17 16 14 14 12 10 11 11 10 9 7 6 7 7 3 11 10 8 11 13 13 10 9 8 4 3 3 3 1 3 2 1 5 4 5 6 3 19 22 22 23 25 24 26
19 18 16 15 14 11 9 10 8 6 5 5 5 5 5 3 6 11 10 11 10 10 10 8 8 3 1 1 2 3 6 2 2 5 2 7 6 5 20 21 21 22 25 26 27
20 19 18 15 13 9 7 5 2 3 4 4 7 4 3 4 5 9 12 12 7 7 7 5 3 4 3 3 4 4 4 1 3 1 5 6 10 6 19 22 23 24 24 25 26
21 20 18 15 12 7 3 2 3 3 7 6 3 2 3 2 5 10 12 12 7 5 6 2 7 11 10 5 6 6 2 3 5 6 4 5 9 7 18 21 22 25 25 27 29
22 21 18 14 9 1 2 3 4 3 6 9 17 18 15 10 2 10 13 9 5 7 5 5 13 8 7 7 7 5 3 5 6 3 4 4 9 8 19 28 30 29 29 29 28
23 22 18 13 6 4 5 3 5 5 3 4 5 6 5 7 5 9 17 8 6 6 7 10 5 10 7 8 8 4 5 1 6 9 2 5 7 3 7 17 23 27 31 30 30
24 23 18 10 2 3 6 3 7 3 2 2 3 4 9 7 3 7 16 7 3 9 8 4 3 9 9 9 7 10 4 4 4 4 4 5 5 8 2 9 13 25 33 33 32
23 25 16 8 4 4 5 3 4 2 2 4 4 7 9 4 7 6 15 4 7 6 5 5 7 8 9 9 8 6 3 1 1 4 4 1 4 9 4 13 8 18 26 32 33
24 24 15 7 4 7 6 2 0 3 3 4 5 6 6 2 2 5 5 4 5 5 0 1 1 4 7 4 9 9 4 6 3 3 4 0 5 12 5 8 7 2 10 22 29
24 21 11 4 4 10 7 3 2 2 1 5 3 6 6 4 3 3 8 8 5 6 7 3 4 1 3 5 3 5 6 5 6 5 6 2 5 11 12 8 12 14 10 13 22
24 12 3 3 8 10 6 2 2 1 1 1 3 8 6 5 2 3 7 9 2 3 5 9 7 9 8 7 6 9 8 4 6 5 6 2 5 8 2 13 10 9 9 8 17
18 4 3 2 8 8 5 2 2 2 2 1 4 4 3 4 3 4 8 9 8 11 3 6 4 2 4 3 2 6 5 3 4 1 3 2 6 12 4 7 6 3 2 5 10
11 2 5 4 10 7 2 3 3 3 3 2 3 2 6 6 6 6 8 5 7 12 3 5 3 2 4 5 8 3 10 4 1 2 4 3 5 5 6 9 7 3 3 2 4
4 2 4 10 5 2 2 3 4 6 6 5 3 4 2 4 5 4 3 2 5 9 4 5 2 3 2 4 9 5 4 5 3 1 3 3 3 1 9 11 12 8 4 2 4
1 1 5 3 1 1 2 2 4 5 1 3 1 2 2 4 4 3 4 4 8 14 8 3 1 2 4 3 1 2 3 7 4 4 0 2 6 4 6 9 8 12 10 3 4
5 1 5 3 2 0 2 3 4 3 3 2 1 0 1 2 2 3 3 2 11 11 10 10 4 2 5 5 3 2 3 3 5 3 5 3 1 3 8 9 16 14 11 9 9
3 1 1 1 1 1 2 1 4 3 4 3 2 2 3 2 3 2 1 4 7 5 5 8 3 1 2 2 1 3 4 5 4 4 6 5 5 8 12 12 17 16 13 11 11
3 1 0 2 2 1 1 2 3 3 2 3 1 2 2 2 2 3 2 3 4 8 3 1 3 2 3 1 3 1 5 9 7 2 4 3 2 7 9 7 11 11 14 15 16
2 1 1 1 1 2 1 1 2 4 3 2 2 2 2 3 4 2 0 2 2 3 3 1 3 1 3 5 4 5 5 6 4 5 3 3 2 2 3 5 12 14 13 15 15
2 2 1 0 1 3 1 1 1 6 2 3 1 5 9 3 4 5 3 3 4 1 3 2 6 4 4 2 1 3 0 1 1 2 2 3 2 2 4 4 7 9 12 12 13
Wind_Direction
328 324 321 317 315 314 314 315 315 314 315 315 315 311 306 296 276 251 244 223 213 197 214 61 359 347 343 46 117 145 345 272 263 200 123 157 133 144 115 137 114 41 149 159 160
332 327 324 319 315 313 311 310 309 308 309 312 312 311 308 306 287 250 228 222 217 208 217 80 353 354 43 46 156 230 209 221 231 179 187 169 151 144 127 152 78 95 133 157 160
335 330 324 320 315 313 309 307 304 302 304 307 308 309 309 319 301 220 213 208 191 185 216 87 5 352 19 193 194 198 271 189 240 209 155 166 147 142 139 190 182 160 151 160 164
336 331 326 321 317 313 308 304 301 297 299 301 305 305 307 309 205 171 196 197 201 198 216 166 19 2 350 355 29 298 281 225 172 154 138 162 152 161 170 153 185 167 162 162 168
339 333 328 323 317 312 307 303 299 295 294 297 300 301 305 280 243 193 221 197 198 194 204 190 231 117 334 328 323 249 311 319 140 126 122 135 171 176 194 122 151 159 165 171 176
342 335 329 324 318 312 308 302 296 291 289 290 296 293 288 265 212 182 192 184 190 188 191 188 197 70 263 265 336 310 300 77 101 136 141 148 162 177 163 148 148 163 170 177 184
343 339 331 325 320 315 310 301 292 287 285 283 282 278 270 247 201 169 147 168 181 185 182 190 191 192 271 282 343 17 99 80 88 117 105 145 175 229 158 158 156 166 176 184 192
341 339 336 328 321 318 313 299 297 287 274 265 258 269 254 227 207 179 154 157 163 181 183 177 182 207 243 330 50 118 54 74 188 134 147 183 268 207 168 166 168 174 183 190 198
342 339 334 326 321 321 312 301 297 270 245 232 244 241 261 213 197 192 176 168 152 157 171 171 173 178 204 123 137 40 122 71 334 206 161 216 270 177 177 177 177 184 188 195 201
344 342 337 328 326 326 310 304 290 245 222 230 239 271 243 152 158 176 183 164 153 152 153 172 147 173 139 189 207 123 131 254 308 41 199 236 261 177 190 190 189 190 197 199 203
345 342 340 331 332 331 334 178 293 281 228 217 171 256 267 75 161 182 180 181 173 164 183 153 197 200 192 169 144 120 129 282 265 294 267 251 263 210 197 210 205 200 202 205 210
344 341 340 332 331 348 75 107 54 304 298 254 247 256 257 278 241 172 177 170 161 183 149 168 216 194 158 143 147 151 183 260 290 136 283 305 272 263 193 209 214 209 205 210 212
341 339 340 332 329 155 121 69 357 340 275 286 230 235 220 198 191 171 170 166 161 157 184 207 193 155 158 161 176 185 241 175 300 331 113 288 279 231 202 218 223 226 224 216 213
338 336 338 333 310 175 165 355 345 308 306 161 221 191 174 155 146 172 170 156 133 179 158 220 136 173 169 186 202 228 207 229 270 314 302 350 308 300 224 228 217 217 221 221 218
335 332 334 319 262 192 186 330 333 329 145 140 127 155 164 182 132 171 184 187 159 151 185 181 181 169 200 202 191 238 123 55 300 261 282 163 262 284 312 302 286 223 223 221 220
334 328 326 307 228 190 188 321 120 255 121 136 129 159 161 171 105 121 159 147 124 118 84 193 202 207 202 175 194 141 100 62 73 191 230 11 254 289 281 279 300 7 246 221 218
333 325 317 262 185 181 181 159 220 239 312 153 143 163 167 164 171 145 170 174 172 170 197 185 219 218 190 145 117 179 159 202 215 220 268 85 223 265 278 273 291 315 298 222 211
335 329 321 203 189 174 169 163 224 64 272 68 117 130 179 157 162 133 152 189 153 119 158 191 204 191 184 213 181 174 218 218 241 256 296 143 237 259 265 307 305 298 277 218 204
339 349 58 159 165 170 168 197 246 214 328 87 128 126 161 191 200 176 194 204 199 190 193 165 232 145 215 153 197 152 189 49 118 104 260 264 265 279 298 291 282 326 243 201 201
344 100 19 140 151 147 170 250 253 235 302 203 166 183 172 179 185 202 182 179 194 198 195 172 164 89 115 117 49 240 140 156 153 228 249 219 275 261 331 345 341 311 323 9 246
339 129 57 129 141 153 224 252 278 263 230 206 157 129 158 174 210 202 195 177 216 169 170 151 286 112 167 203 173 145 169 69 117 300 262 257 257 260 295 322 335 359 7 321 287
41 160 150 136 195 16 214 228 302 282 254 266 252 95 159 170 188 212 221 250 176 151 171 168 104 228 102 124 4 64 159 191 230 191 220 320 278 71 350 323 348 19 31 8 307
354 40 171 23 204 242 307 278 268 298 317 342 125 21 101 133 173 222 197 23 165 166 158 174 211 183 137 143 127 117 131 127 115 139 183 215 229 89 14 20 35 33 30 42 43
348 198 106 202 106 305 346 305 299 277 276 281 308 147 147 109 16 115 88 39 161 179 161 143 111 321 95 85 64 175 168 183 232 194 157 231 299 355 13 10 28 44 57 67 70
350 47 334 177 183 272 271 313 311 332 264 284 153 59 46 84 81 59 64 155 103 146 81 243 115 130 89 294 141 8 172 181 210 172 224 97 224 347 3 14 33 59 66 67 58
357 343 334 171 282 220 24 168 318 333 294 36 184 95 68 73 30 73 120 26 104 118 102 75 134 143 65 69 120 99 97 168 165 150 110 133 214 15 13 79 44 38 57 62 61
314 304 310 70 187 201 176 330 274 335 234 299 137 119 96 54 337 330 320 58 52 64 121 109 141 163 150 21 64 150 142 295 112 184 151 216 95 95 98 39 1 11 18 35 41